Find Local Weather

World > North America > United States > California

San Diego, California Regional Weather

Lat: 32.72N, Lon: 117.16W
Wx Zone: CAZ043
Feedback
Expires:201810220100;;541778
ASUS45 KPSR 220010
RWRAZ 

ARIZONA HOURLY REGIONAL WEATHER ROUNDUP
NATIONAL WEATHER SERVICE PHOENIX AZ
500 PM MST SUN OCT 21 2018

NOTE: FAIR INDICATES FEW OR NO CLOUDS BELOW 12,000 FEET WITH NO
SIGNIFICANT WEATHER AND/OR OBSTRUCTIONS TO VISIBILITY.


CAZ041-043-047-048-061-525>527-560>570-220100-
SOUTHERN CALIFORNIA
  
CITY           SKY/WX    TMP DP  RH WIND       PRES   REMARKS
DOWNTOWN L.A.  SUNNY     72  60  66 W3        29.85S                  
6HR MIN TEMP:  72; 6HR MAX TEMP:  81;                                

L.A. AIRPORT   MOSUNNY   68  60  75 SW10      29.87S                  
6HR MIN TEMP:  68; 6HR MAX TEMP:  76;                                

SAN DIEGO      MOSUNNY   70  61  73 W8        29.89S                  
6HR MIN TEMP:  69; 6HR MAX TEMP:  75;                                

BURBANK        SUNNY     76  48  37 S10       29.86S                  
6HR MIN TEMP:  73; 6HR MAX TEMP:  80;                                

ONTARIO        MOSUNNY   80  45  28 W10       29.85F                  
6HR MIN TEMP:  74; 6HR MAX TEMP:  83;                                

RIVERSIDE      SUNNY     80  41  24 W14       29.85S                  
6HR MIN TEMP:  75; 6HR MAX TEMP:  85;                                

PALM SPRINGS   SUNNY     90  44  20 E9        29.79F                  
6HR MIN TEMP:  85; 6HR MAX TEMP:  91;                                

EL CENTRO NAS  SUNNY     89  43  20 E3        29.78F                  
6HR MIN TEMP:  84; 6HR MAX TEMP:  91;                                

IMPERIAL       SUNNY     89  44  20 SE5       29.76F                  
6HR MIN TEMP:  83; 6HR MAX TEMP:  92;                                

BLYTHE         SUNNY     88  49  25 S7        29.78F                  
6HR MIN TEMP:  80; 6HR MAX TEMP:  90;                                

NEEDLES        SUNNY     88  51  28 NE12      29.83F                  
6HR MIN TEMP:  83; 6HR MAX TEMP:  90;                                

$$


SKY/WX - Weather  TMP - Temperature  DP - Dew Point  RH - Relative Humidity
WIND - Wind Direction/Speed PRES - Barometric Pressure